Regional Weather Roundup
Issued by NWS Cleveland, OH

Home | Current Version | Previous Version | Text Only | Print | Product List | Glossary Off
Versions: 1 2 3 4 5 6 7 8 9 10 11 12 13 14 15 16 17 18 19 20 21 22 23 24 25 26 27 28 29 30 31 32 33 34 35 36 37 38 39 40 41 42 43 44 45 46 47 48 49 50

000
ASUS41 KCLE 260700
RWRCLE
OHIO REGIONAL WEATHER ROUNDUP
NATIONAL WEATHER SERVICE WILMINGTON, OH
300 AM EDT WED JUL 26 2017

NOTE: "FAIR" INDICATES FEW OR NO CLOUDS BELOW 12,000 FEET WITH NO
SIGNIFICANT WEATHER AND/OR OBSTRUCTIONS TO VISIBILITY.

OHZ001>008-015>018-024>027-034-035-043-044-260800-
   NORTHWEST OHIO

CITY           SKY/WX    TMP DP  RH WIND       PRES   REMARKS
DEFIANCE       FAIR     N/A N/A N/A SE6       30.17F
FINDLAY        FAIR      62  58  86 SE6       30.17F
TOLEDO EXPRESS FAIR      60  59  96 SE3       30.17F
TOLEDO EXEC    FAIR      61  59  93 SE3       30.18F
LIMA           FAIR      61  59  93 S3        30.18F
$$

OHZ009>014-019>023-028>033-038-089-260800-
   NORTHEAST OHIO

CITY           SKY/WX    TMP DP  RH WIND       PRES   REMARKS
CLE-HOPKINS    FAIR      62  56  80 SE3       30.21F
CLE-LAKEFRONT  FAIR      63  55  75 SE7       30.18F
CUY CO. ARPT   NOT AVBL
LORAIN-ELYRIA  FAIR      55  50  83 CALM      30.20F HAZE
ASHTABULA      FAIR      53  53 100 CALM      30.22F
AKRON-CANTON   FAIR      61  54  77 CALM      30.20F
WOOSTER        NOT AVBL
MANSFIELD      FAIR      61  58  90 SE6       30.20F
YOUNGSTOWN     FAIR      55  53  93 E6        30.20F
$$

OHZ042-051>053-060>062-070>072-077>081-260800-
  SOUTHWEST OHIO

CITY           SKY/WX    TMP DP  RH WIND       PRES   REMARKS
CINC-COVINGTON FAIR      65  62  90 SE9       30.16F
CINC-LUNKEN    FAIR      61  61 100 CALM      30.17F
HAMILTON       FAIR      62  60  93 CALM      30.17F
DAYTON         NOT AVBL
WRIGHT-PAT AFB CLEAR     62  60  92 CALM      30.17F
DAYTON GENERAL FAIR      62  58  86 SE5       30.17F
WILMINGTON     FAIR      58  58 100 CALM      30.18F
$$

OHZ036-037-039>041-045>050-054>059-063>069-073>076-082>088-260800-
  CENTRAL AND SOUTHEAST OHIO

CITY           SKY/WX    TMP DP  RH WIND       PRES   REMARKS
COLUMBUS       FAIR      62  62 100 CALM      30.18F
OSU AIRPORT    FAIR      59  59 100 CALM      30.18F
BOLTON FIELD   NOT AVBL
RICKENBACK AFB NOT AVBL
NEWARK         FOG       58  56  93 CALM      30.18F VSB 3/4
MARION         FAIR      59  57  93 SE5       30.19F
LANCASTER      FAIR      56  56 100 CALM      30.19F FOG
ZANESVILLE     FAIR      58  56  93 CALM      30.19F
NEW PHILLY     FAIR      58  58 100 SE3       30.19F FOG
$$




USA.gov is the U.S. government's official web portal to all federal, state and local government web resources and services.